Location: Sestri Ponente
(44.4167°N, 8.8500°E)
Time: 09:35:31
(UTC+00:00)

Daily predictions for brighter satellites

Satellite Brightness Start Highest point End
(mag) Time Altitude Azimuth Time Altitude Azimuth Time Altitude Azimuth
COSMOS 2487 2.6 16:47:32 10° N 16:50:55 49° ENE 16:54:15 10° SE
Aureole 1 Rocket 3.5 16:48:18 10° NNW 16:51:10 45° WSW 16:54:08 10° S
Cosmos 1741 Rocket 4.0 16:46:07 10° NNW 16:51:21 66° ENE 16:56:32 10° SSE
Envisat 3.7 16:48:38 10° S 16:53:39 61° W 16:58:42 10° NNW
Cosmos 1300 3.8 16:51:33 10° SE 16:54:37 24° E 16:57:42 10° NE
FengYun 1-2 T 4.3 16:50:19 10° SSE 16:55:54 64° ENE 17:01:29 10° N
NOAA 11 4.3 16:52:16 10° SSE 16:57:36 59° ENE 17:02:57 10° N
BREEZE-M R/B 3.7 16:56:41 10° W 16:59:55 48° N 17:05:59 10° ENE
Feng Yun 1-1 Rocket 4.5 16:55:23 10° SE 17:01:06 57° ENE 17:06:55 10° N
Helios 1A Rocket 3.9 16:58:07 10° SE 17:01:34 26° ENE 17:05:02 10° N
Cosmos 2369 Rocket 4.1 17:03:39 10° WSW 17:08:28 28° NW 17:13:21 10° N
Cosmos 1850 Rocket 4.1 17:03:12 10° NNW 17:08:31 86° WSW 17:13:51 10° SSE
Cosmos 1939 Rocket 3.2 17:05:43 10° SE 17:09:30 42° ENE 17:13:14 10° N
Cosmos 2297 Rocket 3.2 17:05:51 10° N 17:10:38 27° NE 17:15:22 10° ESE
COSMO-SKYMED 1 2.8 17:10:25 10° NNE 17:14:37 46° E 17:18:47 10° S
Cosmos 1452 Rocket 4.2 17:10:27 10° SW 17:15:37 57° WNW 17:20:51 10° NNE
Okean O Rocket 2.7 17:12:05 10° S 17:16:20 49° W 17:20:35 10° NNW
Cosmos 1689 Rocket 2.4 17:14:37 10° NNE 17:17:22 39° E 17:20:05 10° S
Aureole 3 Rocket 3.8 17:14:20 10° SE 17:17:30 27° E 17:21:28 10° NNE
H-2A R/B 3.2 17:15:05 10° ESE 17:19:23 25° ENE 17:23:43 10° N
H-2A R/B 4.2 17:18:21 10° N 17:21:54 27° WNW 17:25:23 10° SW
Cosmos 1328 4.2 17:18:39 10° NNW 17:22:34 65° W 17:26:29 10° S
IRS-1C Rocket 4.0 17:19:12 10° SSE 17:24:25 69° ENE 17:29:40 10° N
ADEOS Rocket 4.4 17:20:13 10° N 17:26:06 44° WNW 17:32:34 10° SW
Cosmos 1340 3.6 17:23:48 10° NNE 17:27:05 27° ENE 17:30:20 10° SE
CZ-4 R/B 1.8 17:23:36 10° SE 17:27:13 36° ENE 17:30:48 10° N
Cosmos 1553 Rocket 4.5 17:23:09 10° SSE 17:28:56 38° E 17:34:40 10° NNE
Cosmos 1825 Rocket 3.6 17:24:28 10° N 17:28:57 89° W 17:33:22 10° S
ERS-2 3.4 17:25:49 10° N 17:29:17 43° WNW 17:32:44 10° SW
YAOGAN 1 3.1 17:27:02 10° SE 17:31:00 37° ENE 17:34:59 10° N
USA 281 4.4 17:25:31 10° S 17:31:45 45° WSW 17:38:01 10° NW
Lacrosse 5 3.6 17:30:36 10° WNW 17:34:39 23° NNW 17:38:43 10° NE
Cosmos 2219 3.6 17:30:49 10° NNW 17:36:17 42° ENE 17:41:21 12° SE
Meteor 2-21 Rocket 4.4 17:30:28 10° N 17:36:42 86° E 17:42:49 10° S
SKYMED 3 4.5 17:34:18 10° NNE 17:38:41 85° ESE 17:43:01 10° SSW
CZ-4B R/B 3.3 17:37:42 10° N 17:40:38 31° WNW 17:43:28 10° SW
SAR-Lupe-4 4.2 17:37:38 10° N 17:41:11 58° WNW 17:44:42 10° SSW
Cosmos 1400 Rocket 3.0 17:37:36 10° S 17:41:35 49° E 17:45:33 10° NNE
Geosat 4.2 17:38:18 10° NE 17:43:11 49° ESE 17:48:02 10° S
Cosmos 44 3.1 17:39:09 10° SSW 17:43:34 67° ESE 17:47:38 14° NE
Okean-O 2.5 17:39:52 10° SSE 17:44:15 66° ENE 17:48:40 10° N
Cosmos 1726 Rocket 3.5 17:40:15 10° S 17:44:34 88° W 17:48:59 10° N
USA 305 4.4 17:41:28 10° NW 17:45:02 24° N 17:46:51 19° NE
USA 306 4.4 17:47:44 10° NW 17:51:19 25° N 17:52:49 21° NE
Cosmos 1745 Rocket 4.3 17:49:03 10° N 17:55:02 45° ENE 18:01:03 10° SSE
SL-08 R/B 4.4 17:50:31 10° N 17:56:40 62° E 18:02:42 10° SSE
Aureole 3 2.6 17:54:04 10° S 17:57:28 84° E 18:00:30 10° N
Cosmos 1331 Rocket 4.5 17:54:08 10° SSW 17:59:14 60° WNW 18:04:22 10° NNE
FALCON 9 DEB 2.9 17:56:26 10° SW 17:59:37 61° SE 17:59:55 57° ESE
SKYMED 2 4.3 17:58:27 10° N 18:02:42 53° WNW 18:06:55 10° SSW
Cosmos 2228 4.4 17:59:24 10° SSW 18:03:23 40° WNW 18:07:25 10° N
ATLAS 5 CENTAUR R/B 4.3 18:03:56 10° NW 18:05:28 11° NNW 18:07:05 10° N
CZ-2C R/B 3.2 18:01:09 10° SSE 18:06:58 82° ENE 18:12:42 10° NNW
SL-4 R/B 3.2 18:04:08 10° WNW 18:07:13 26° N 18:08:01 24° NNE
FALCON 9 DEB 2.7 18:04:02 10° SW 18:07:13 77° SE 18:07:15 77° SE
NOSS 2-2 (D) 4.5 18:02:39 10° NW 18:08:16 74° NE 18:13:51 20° SE
Cosmos 292 Rocket 4.2 18:03:39 10° SSW 18:08:23 63° WNW 18:13:12 10° NNE
ARGOS 3.3 18:09:09 27° SE 18:11:50 49° ENE 18:17:03 10° N
NOSS 3-3 (A) 4.3 18:08:37 10° S 18:13:46 36° ESE 18:14:04 35° ESE
Cosmos 1346 Rocket 3.4 18:09:54 10° N 18:12:50 39° NE 18:12:50 39° NE
NOSS 3-3 (C) 4.4 18:08:42 10° S 18:13:54 36° ESE 18:14:12 35° ESE
Cosmos 2227 Rocket 2.2 18:09:00 10° NNW 18:14:38 62° ENE 18:17:08 33° SE
Meteor 2-10 Rocket 3.5 18:09:37 10° S 18:14:53 56° E 18:19:58 10° NNE
Meteor 2-15 4.3 18:08:55 10° S 18:14:59 66° E 18:21:05 10° NNE
FALCON 9 DEB 3.0 18:12:02 10° SW 18:15:00 73° SW 18:15:00 73° SW
SeaSat 1 2.5 18:14:54 41° ESE 18:16:18 56° ENE 18:21:09 10° NNW
Cosmos 1892 2.5 18:14:35 10° N 18:18:29 80° E 18:19:18 54° SSE
USA 215 3.8 18:17:28 31° ENE 18:19:54 43° NNE 18:25:59 10° NW
Cosmos 1656 3.5 18:16:33 10° SSW 18:22:04 76° ESE 18:26:21 18° NNE
CSL-04 Rocket 3.6 18:19:09 10° SSE 18:24:42 85° ENE 18:30:16 10° NNW
Cosmos 1709 Rocket 4.3 18:19:09 10° N 18:25:14 44° ENE 18:25:51 42° E
Cosmos 2263 Rocket 4.0 18:21:51 10° N 18:24:14 15° NNE 18:24:14 15° NNE
Cosmos 968 Rocket 3.3 18:20:21 10° NNW 18:25:36 69° ENE 18:26:57 48° SE
Cosmos 2058 Rocket 3.9 18:21:16 10° SSW 18:25:37 52° WNW 18:30:03 10° N
ATLAS 2AS CENTAUR R/B 4.0 18:20:02 10° NNW 18:26:15 26° NNE 18:27:53 24° NE
Cosmos 1302 Rocket 4.3 18:22:30 10° SSW 18:27:43 66° WNW 18:33:00 10° NNE
FALCON 9 DEB 4.0 18:26:49 10° WSW 18:29:11 44° W 18:29:11 44° W
Cosmos 1486 Rocket 3.9 18:26:42 10° NNW 18:32:04 82° ENE 18:33:47 45° SSE
USA 307 4.1 18:29:28 10° NW 18:32:53 31° N 18:32:53 31° N
Cosmos 1697 Rocket 3.0 18:28:27 10° S 18:32:53 46° SE 18:32:53 46° SE
USA 308 4.1 18:34:13 10° NW 18:37:27 32° N 18:37:27 32° N
GEOS 3 Rocket 3.9 18:36:45 31° SSE 18:39:18 65° SW 18:44:40 10° NW
Cosmos 1503 Rocket 4.3 18:36:07 10° NNW 18:40:30 51° NNE 18:40:30 51° NNE
Cosmos 883 Rocket 4.4 18:35:31 10° S 18:41:34 60° E 18:47:36 10° NNE
S3M 3.9 18:36:35 10° S 18:42:40 85° W 18:48:52 10° N
Milstar 3 4.2 18:45:59 10° SW 18:51:01 22° S 18:51:54 22° SSE
Cosmos 2297 Rocket 2.8 18:49:28 10° NW 18:55:00 54° WSW 18:57:46 28° S
H-2A R/B 2.9 18:53:14 10° S 18:58:27 51° W 19:03:46 10° NNW
Cosmos 2058 4.0 18:54:54 10° NNW 18:57:58 40° NW 18:57:58 40° NW
MOS 1 Rocket 4.2 18:54:39 10° N 18:59:04 47° WNW 19:03:43 10° SW
CZ-4 R/B 4.1 18:59:41 10° SW 19:02:22 18° W 19:05:03 10° NW
Ariane Rocket 4.3 19:18:51 32° NNW 19:18:51 32° NNW 19:21:33 10° NNW
Lacrosse 5 3.9 19:15:23 10° NW 19:18:09 19° N 19:18:09 19° N
BREEZE-M R/B 4.3 19:18:23 10° WNW 19:23:15 70° N 19:23:15 70° N
Cosmos 2082 4.4 19:25:46 10° NNW 19:30:17 50° WNW 19:30:17 50° WNW
Atlas Centaur 2 4.3 19:26:01 10° SW 19:31:14 26° SSW 19:31:14 26° SSW
CZ-4C R/B 4.1 19:32:56 10° NNW 19:37:16 28° N 19:37:16 28° N
Cosmos 2227 Rocket 4.3 19:54:07 10° NW 19:58:09 20° W 19:59:01 20° WSW
USA 215 4.1 20:04:49 45° WNW 20:04:49 45° WNW 20:09:11 10° NW
Cosmos 2263 Rocket 4.4 20:04:30 10° NNW 20:05:56 18° NNW 20:05:56 18° NNW
ATLAS 2AS CENTAUR R/B 4.0 20:11:02 10° NW 20:15:19 37° NNW 20:15:19 37° NNW
